(43365) = 1998 FC84 = 2000 VA36

Discovered at Socorro on 2000-11-01 by LINEAR.

Orbit

Orbit type: Main Belt

Note: WebGL enabled browser required.

epoch2024-03-31.0
epoch JD2460400.5
perihelion date2020-12-03.85044
perihelion JD2459187.35044
argument of perihelion (°)317.74613
ascending node (°)118.98785
inclination (°)6.70312
eccentricity0.1171544
perihelion distance (AU)1.9769016
Tisserand w.r.t. Jupiter3.6
ΔV w.r.t. Earth (km/sec)8.9
semimajor axis (AU)2.2392383
mean anomaly (°)356.83521
mean daily motion (°/day)0.29413950
aphelion distance (AU)2.502
period (years)3.35
P-vector [x]0.22545194
P-vector [y]0.92217604
P-vector [z]0.31426543
Q-vector [x]-0.96888939
Q-vector [y]0.17842008
Q-vector [z]0.17152150
absolute magnitude15.52
phase slope0.15
uncertainty0
referenceMPEC 2024-D122
observations used1771
oppositions18
arc length (days)9448
first opposition used1998
last opposition used2024
residual rms (arc-secs)0.61
perturbers coarse indicatorM-v
perturbers precise indicator003Ek
first observation date used1998-02-24.0
last observation date used2024-01-07.0
computer nameMPCLINUX
JD of orbit computation2456670.766174
perihelion JD uncertainty (days)6.9938E-05
argument of perihelion uncertainty (°)4.6313E-05
ascending node uncertainty (°)4.1343E-05
inclination uncertainty (°)3.6188E-06
eccentricity uncertainty 3.7649E-08
perihelion distance uncertainty (AU)8.7182E-08
Minimum Orbit Intersection Distances (in AU)
for orbit epoch: 2460400.5, reference: E2024-DC2
Mercury1.67276
Venus1.25988
Earth0.99862
Mars0.40308
Jupiter2.70093
Saturn7.05535
Uranus16.1941
Neptune27.7315

Observations

1784 total observations over interval: 1998 02 24.49327 – 2024 01 07.265256
These data are available for download (format description).

Date (UT) J2000 RA J2000 Dec Magn Location Ref
1998 02 24.49327 11 31 24.11 +12 09 37.1 18.6 V 566 – Haleakala-NEAT/GEODSS MPS 24831
1998 02 24.50390 11 31 23.55 +12 09 43.3 18.5 V 566 – Haleakala-NEAT/GEODSS MPS 24831
1998 02 24.51464 11 31 22.95 +12 09 49.1 18.3 V 566 – Haleakala-NEAT/GEODSS MPS 24832
1998 03 24.14562 11 06 10.02 +15 46 34.9 18.9   704 – Lincoln Laboratory ETS, New Mexico MPS 987
1998 03 24.16596 11 06 08.93 +15 46 39.7 18.7   704 – Lincoln Laboratory ETS, New Mexico MPS 987
1998 03 24.18620 11 06 07.96 +15 46 45.6 18.7   704 – Lincoln Laboratory ETS, New Mexico MPS 987
1998 03 24.20689 11 06 06.97 +15 46 51.5 18.7   704 – Lincoln Laboratory ETS, New Mexico MPS 987
1998 03 24.44056 11 05 55.65 +15 48 03.6 19.8 V 566 – Haleakala-NEAT/GEODSS MPS 24832
1998 03 24.45053 11 05 55.12 +15 48 06.7 19.6 V 566 – Haleakala-NEAT/GEODSS MPS 24832
1998 03 24.46059 11 05 54.64 +15 48 09.4 19.5 V 566 – Haleakala-NEAT/GEODSS MPS 24832
1998 03 25.12856 11 05 24.06 +15 51 21.5 19.0   704 – Lincoln Laboratory ETS, New Mexico MPS 987
1998 03 25.14886 11 05 23.01 +15 51 29.3 19.0   704 – Lincoln Laboratory ETS, New Mexico MPS 987
1998 03 25.16935 11 05 22.10 +15 51 34.6 19.5   704 – Lincoln Laboratory ETS, New Mexico MPS 987
1998 03 25.18971 11 05 21.01 +15 51 41.5 19.5   704 – Lincoln Laboratory ETS, New Mexico MPS 987
1998 03 25.21007 11 05 20.07 +15 51 45.0 19.5   704 – Lincoln Laboratory ETS, New Mexico MPS 987
1999 07 16.24100 19 21 38.06 -20 25 26.8 18.0   704 – Lincoln Laboratory ETS, New Mexico MPS 25255
1999 07 16.25376 19 21 37.21 -20 25 30.8 18.4   704 – Lincoln Laboratory ETS, New Mexico MPS 25255
1999 07 16.26652 19 21 36.26 -20 25 34.0 18.7   704 – Lincoln Laboratory ETS, New Mexico MPS 25255
1999 07 16.27936 19 21 35.53 -20 25 39.3 18.6   704 – Lincoln Laboratory ETS, New Mexico MPS 25255
2000 11 01.41221 07 09 14.75 +16 11 28.3 18.3   704 – Lincoln Laboratory ETS, New Mexico MPS 21722
2000 11 01.42584 07 09 15.38 +16 11 27.1 18.9   704 – Lincoln Laboratory ETS, New Mexico MPS 21722
2000 11 01.43952 07 09 15.94 +16 11 25.8 18.7   704 – Lincoln Laboratory ETS, New Mexico MPS 21722
2000 11 01.45327 07 09 16.58 +16 11 24.8 18.6   704 – Lincoln Laboratory ETS, New Mexico MPS 21722
2000 11 01.46707 07 09 17.13 +16 11 24.7 18.7   704 – Lincoln Laboratory ETS, New Mexico MPS 21722
2000 11 02.44461 07 10 01.30 +16 10 20.0 18.4   704 – Lincoln Laboratory ETS, New Mexico MPS 21722
2000 11 02.46006 07 10 01.92 +16 10 18.4 18.9   704 – Lincoln Laboratory ETS, New Mexico MPS 21722
2000 11 02.47392 07 10 02.50 +16 10 18.4 19.6   704 – Lincoln Laboratory ETS, New Mexico MPS 21722
2000 11 02.48873 07 10 03.12 +16 10 16.8 19.0   704 – Lincoln Laboratory ETS, New Mexico MPS 21722
2000 11 02.50268 07 10 03.75 +16 10 16.3 19.0   704 – Lincoln Laboratory ETS, New Mexico MPS 21722
2000 11 27.36276 07 17 36.82 +16 17 08.7 18.5   704 – Lincoln Laboratory ETS, New Mexico MPS 25255
2000 11 27.37776 07 17 36.57 +16 17 10.4 18.9   704 – Lincoln Laboratory ETS, New Mexico MPS 25255
2000 11 27.39228 07 17 36.39 +16 17 13.1 19.2   704 – Lincoln Laboratory ETS, New Mexico MPS 25255
2000 11 27.40679 07 17 36.12 +16 17 14.6 19.2   704 – Lincoln Laboratory ETS, New Mexico MPS 25255
2000 11 27.42130 07 17 35.94 +16 17 16.0 18.8   704 – Lincoln Laboratory ETS, New Mexico MPS 25255
2000 12 30.29741 06 53 47.00 +18 40 52.4 17.0   704 – Lincoln Laboratory ETS, New Mexico MPS 23902
2000 12 30.31224 06 53 45.97 +18 40 58.0 17.2   704 – Lincoln Laboratory ETS, New Mexico MPS 23902
2000 12 30.32711 06 53 44.93 +18 41 03.6 17.7   704 – Lincoln Laboratory ETS, New Mexico MPS 23902
2000 12 30.34208 06 53 43.92 +18 41 08.9 17.2   704 – Lincoln Laboratory ETS, New Mexico MPS 23902
2001 01 02.27936 06 50 29.66 +18 59 27.6 17.1   704 – Lincoln Laboratory ETS, New Mexico MPS 23902
2001 01 02.29437 06 50 28.64 +18 59 33.5 16.8   704 – Lincoln Laboratory ETS, New Mexico MPS 23902
2001 01 02.30914 06 50 27.61 +18 59 38.9 16.9   704 – Lincoln Laboratory ETS, New Mexico MPS 23902
2001 01 02.32469 06 50 26.52 +18 59 45.5 16.8   704 – Lincoln Laboratory ETS, New Mexico MPS 23902
2001 01 02.33983 06 50 25.50 +18 59 50.4 16.7   704 – Lincoln Laboratory ETS, New Mexico MPS 23902
2001 01 03.30359 06 49 21.74 +19 05 55.4 17.4   704 – Lincoln Laboratory ETS, New Mexico MPS 25255
2001 01 03.31833 06 49 20.73 +19 06 00.9 17.3   704 – Lincoln Laboratory ETS, New Mexico MPS 25255
2001 01 03.33307 06 49 19.69 +19 06 06.3 17.2   704 – Lincoln Laboratory ETS, New Mexico MPS 25255
2001 01 03.34793 06 49 18.67 +19 06 11.6 17.5   704 – Lincoln Laboratory ETS, New Mexico MPS 25255
2001 01 03.36268 06 49 17.64 +19 06 17.5 17.3   704 – Lincoln Laboratory ETS, New Mexico MPS 25255
2001 01 20.23171 06 32 30.08 +20 51 51.2 18.0   704 – Lincoln Laboratory ETS, New Mexico MPS 25255
2001 01 20.24699 06 32 29.34 +20 51 56.5 18.4   704 – Lincoln Laboratory ETS, New Mexico MPS 25255
2001 01 20.26297 06 32 28.47 +20 52 02.3 17.9   704 – Lincoln Laboratory ETS, New Mexico MPS 25255
2001 01 20.27821 06 32 27.67 +20 52 07.4 18.0   704 – Lincoln Laboratory ETS, New Mexico MPS 25255
2001 01 20.29330 06 32 26.92 +20 52 13.1 18.2   704 – Lincoln Laboratory ETS, New Mexico MPS 25255
2001 01 21.23261 06 31 42.36 +20 57 48.1 17.2   704 – Lincoln Laboratory ETS, New Mexico MPS 25255
2001 01 21.26289 06 31 40.84 +20 57 58.7 17.8   704 – Lincoln Laboratory ETS, New Mexico MPS 25255
2001 01 21.27933 06 31 40.03 +20 58 04.2 17.5   704 – Lincoln Laboratory ETS, New Mexico MPS 25255
2001 01 21.29430 06 31 39.29 +20 58 09.8 17.3   704 – Lincoln Laboratory ETS, New Mexico MPS 25255
2001 02 19.16687 06 24 50.06 +23 18 33.1 17.9   704 – Lincoln Laboratory ETS, New Mexico MPS 26703
2001 02 19.18084 06 24 50.30 +23 18 36.6 18.4   704 – Lincoln Laboratory ETS, New Mexico MPS 26703
2001 02 19.19483 06 24 50.54 +23 18 39.4 18.1   704 – Lincoln Laboratory ETS, New Mexico MPS 26703
2001 02 19.20918 06 24 50.76 +23 18 43.2 18.1   704 – Lincoln Laboratory ETS, New Mexico MPS 26703
2001 02 19.22363 06 24 51.04 +23 18 46.0 19.0   704 – Lincoln Laboratory ETS, New Mexico MPS 26703
2001 02 22.18254 06 25 59.08 +23 29 20.3 18.7   704 – Lincoln Laboratory ETS, New Mexico MPS 26703
2001 02 22.19663 06 25 59.34 +23 29 23.1 19.0   704 – Lincoln Laboratory ETS, New Mexico MPS 26703
2001 02 22.21064 06 25 59.73 +23 29 26.1 18.5   704 – Lincoln Laboratory ETS, New Mexico MPS 26703
2001 02 22.22463 06 26 00.08 +23 29 28.2 18.0   704 – Lincoln Laboratory ETS, New Mexico MPS 26703
2002 05 09.35485 16 59 12.62 -13 52 13.6 18.3   704 – Lincoln Laboratory ETS, New Mexico MPS 54519
2002 05 09.36693 16 59 11.96 -13 52 11.9 19.0   704 – Lincoln Laboratory ETS, New Mexico MPS 54519
2002 05 09.37915 16 59 11.45 -13 52 11.0 18.9   704 – Lincoln Laboratory ETS, New Mexico MPS 54519
2002 05 09.39132 16 59 10.82 -13 52 09.2 18.6   704 – Lincoln Laboratory ETS, New Mexico MPS 54519
2002 05 09.40339 16 59 10.26 -13 52 08.5 18.8   704 – Lincoln Laboratory ETS, New Mexico MPS 54519
2002 06 02.31347 16 35 50.03 -13 26 31.3 18.3 R 699 – Lowell Observatory-LONEOS MPS 57076
2002 06 02.32536 16 35 49.22 -13 26 31.0   699 – Lowell Observatory-LONEOS MPS 57076
2002 06 02.33724 16 35 48.44 -13 26 30.0   699 – Lowell Observatory-LONEOS MPS 57076
2002 06 02.34909 16 35 47.63 -13 26 30.6   699 – Lowell Observatory-LONEOS MPS 57076
2002 06 05.23739 16 32 42.31 -13 25 54.7 18.7   704 – Lincoln Laboratory ETS, New Mexico MPS 57076
2002 06 05.26387 16 32 40.50 -13 25 54.4 19.1   704 – Lincoln Laboratory ETS, New Mexico MPS 57076
2002 06 05.27790 16 32 39.63 -13 25 54.0 18.6   704 – Lincoln Laboratory ETS, New Mexico MPS 57076
2002 06 05.29257 16 32 38.69 -13 25 54.4 18.7   704 – Lincoln Laboratory ETS, New Mexico MPS 57076
2002 06 09.30089 16 28 25.66 -13 26 13.2 18.8   704 – Lincoln Laboratory ETS, New Mexico MPS 57076
2002 06 09.34226 16 28 23.01 -13 26 12.4 18.9   704 – Lincoln Laboratory ETS, New Mexico MPS 57076
2002 06 09.35603 16 28 22.16 -13 26 12.9 18.6   704 – Lincoln Laboratory ETS, New Mexico MPS 57076
2002 06 10.27553 16 27 25.56 -13 26 30.5 18.3   644 – Palomar Mountain/NEAT MPS 57076
2002 06 10.29646 16 27 24.21 -13 26 30.8 18.5   644 – Palomar Mountain/NEAT MPS 57076
